Powrót do katalogu

CZ-4C DEB

AktywnyLEO
NORAD 43404·DEBRIS·🇨🇳 China

Wystrzelony Nov 25, 2012 z Jiuquan Satellite Launch Center

Loading…

Następne Przeloty (najbliższe 24 godziny)

TLE

ŚwieżeSource: Space-Track

Epoka: Sep 14, 2026, 05:40 UTC

1 43404U 12066G   26257.23665696 -.00000047  00000-0  10744-3 0  9996
2 43404  63.3569 135.4420 0176886 347.1823  12.4709 12.93184040604894

Śledź CZ-4C DEB w czasie rzeczywistym z AllMySat

Download on the App Store